Flag for Ukraine Weather past 2 weeks in Odesa, Ukraine

Now
54 °F

Sunny.


Feels Like: 51 °F
Forecast: 49 / 55 °F
Wind: 8 mph from Northeast

Location: Odesa Airport

Current Time: Oct 2, 2014 at 10:00:58 AM

Latest Report: Oct 2, 2014 at 9:00 AM


Visibility: 10 mi

Pressure: 30.42 "Hg

Humidity: 63%

Dew point: 41 °F

Location of OdesaLocation

Historic Weather in Odesa — Graph

°F

Odesa temperature yesterday

Maximum temperature yesterday: 70 °F (at 2:00 PM)
Minimum temperature yesterday: 52 °F (at 7:00 AM)
Average temperature yesterday: 61 °F

Past Weeks' High & Low Weather Summary

 TemperatureHumidityPressure
High77 °F (Sep 30, 4:00 PM)100% (Sep 22, 8:30 PM)30.42 "Hg (Sep 22, 8:30 PM)
Low39 °F (Sep 25, 5:00 AM)17% (Sep 19, 1:30 PM)29.53 "Hg (Sep 23, 2:30 AM)
Average59 °F60%30.06 "Hg
* Reported Sep 17 8:00 AM — Oct 2 8:30 AM, Odesa, Weather by CustomWeather, © 2014

Note: Actual official high and low records may vary slightly from our data, if they occured in-between our weather recording intervals... More about our weather records

Advertising

Odesa weather history for previous 24 hours

 ConditionsComfort  
Time TempWeatherWind HumidityBarometerVisibility
8:30 AM
Oct 2
54 °FSunny.8 mph63%30.42 "Hg10 mi
8:00 AM50 °FPassing clouds.3 mph71%30.42 "HgN/A
7:30 AM48 °FClear.3 mph76%30.42 "Hg10 mi
7:00 AM48 °FClear.6 mph76%30.39 "Hg10 mi
6:30 AM46 °FPassing clouds.6 mph82%30.39 "HgN/A
6:00 AM46 °FPassing clouds.6 mph76%30.39 "HgN/A
5:30 AM50 °FClear.3 mph71%30.39 "Hg10 mi
5:00 AM52 °FClear.3 mph67%30.39 "Hg10 mi
4:30 AM52 °FClear.1 mph62%30.39 "Hg10 mi
4:00 AM54 °FClear.3 mph58%30.39 "Hg10 mi
3:30 AM55 °FPassing clouds.3 mph59%30.36 "HgN/A
3:00 AM55 °FPassing clouds.3 mph47%30.36 "HgN/A
2:30 AM55 °FPassing clouds.6 mph55%30.36 "HgN/A
2:00 AM57 °FPassing clouds.6 mph48%30.36 "HgN/A
1:30 AM57 °FPassing clouds.6 mph48%30.36 "HgN/A
1:00 AM57 °FPassing clouds.8 mph48%30.36 "HgN/A
12:30 AM57 °FPassing clouds.8 mph51%30.36 "HgN/A
12:00 AM57 °FPassing clouds.8 mph51%30.36 "HgN/A
11:30 PM
Oct 1
59 °FPassing clouds.8 mph45%30.33 "HgN/A
11:00 PM59 °FPassing clouds.6 mph42%30.33 "HgN/A
10:30 PM59 °FPassing clouds.6 mph39%30.33 "HgN/A
10:00 PM59 °FPassing clouds.6 mph36%30.33 "HgN/A
9:30 PM59 °FClear.1 mph36%30.30 "Hg10 mi
9:00 PM59 °FPassing clouds.3 mph34%30.30 "HgN/A
8:30 PM61 °FPassing clouds.6 mph31%30.30 "HgN/A
8:00 PM61 °FPassing clouds.3 mph34%30.30 "HgN/A
7:30 PM61 °FSunny.6 mph39%30.27 "Hg10 mi
7:00 PM63 °FSunny.6 mph37%30.27 "Hg10 mi
6:30 PM64 °FSunny.6 mph34%30.27 "Hg10 mi
6:00 PM66 °FSunny.8 mph32%30.24 "Hg10 mi
5:30 PM68 °FPassing clouds.10 mph30%30.24 "HgN/A
5:00 PM68 °FSunny.10 mph30%30.24 "Hg10 mi
4:30 PM70 °FPassing clouds.10 mph31%30.24 "HgN/A
4:00 PM70 °FPassing clouds.10 mph31%30.24 "HgN/A
3:30 PM70 °FSunny.10 mph33%30.24 "Hg10 mi
3:00 PM70 °FPassing clouds.8 mph33%30.24 "HgN/A
2:30 PM70 °FPassing clouds.8 mph35%30.24 "HgN/A
2:00 PM70 °FPassing clouds.8 mph33%30.24 "HgN/A
1:30 PM68 °FPassing clouds.8 mph35%30.24 "HgN/A
12:30 PM68 °FPassing clouds.10 mph40%30.24 "HgN/A
12:00 PM66 °FPassing clouds.10 mph43%30.24 "HgN/A
11:30 AM66 °FPassing clouds.8 mph43%30.24 "HgN/A
11:00 AM66 °FPassing clouds.8 mph46%30.24 "HgN/A
10:30 AM63 °FPassing clouds.8 mph56%30.24 "HgN/A
10:00 AM61 °FSunny.6 mph63%30.24 "Hg10 mi
Weather by CustomWeather, © 2014

See weather overviewHow to use our weather pages